This demonstration page uses our WeatherBlox Daily Observations layout. Learn more.

Left ArrowRight Arrow

47.50024, -111.30081

Hourly Observations for March 28, 2015

Temp ( °F °C ) Dew Point ( °F °C ) Humidity (%) Winds ( mph kmh ) Pressure ( in mb ) Visibility ( mi km ) Precip ( " mm )
12:53 am 00:53 Clear 48 8.9 34 1.1 58 58 SSW 10 17 29.83 1010 10 16 0.00 0.00
1:53 am 01:53 Clear 47 8.3 33 0.6 59 59 SSW 10 17 29.80 1009 10 16 0.00 0.00
2:53 am 02:53 Clear 52 11.1 34 1.1 50 50 S 9 15 29.75 1008 10 16 0.00 0.00
3:53 am 03:53 Clear 51 10.6 34 1.1 52 52 S 13 20 29.72 1006 10 16 0.00 0.00
4:53 am 04:53 Clear 49 9.4 34 1.1 56 56 SSE 10 17 29.68 1005 10 16 0.00 0.00
5:53 am 05:53 Clear 52 11.1 33 0.6 49 49 SSW 17 28 29.65 1004 10 16 0.00 0.00
6:53 am 06:53 Clear 49 9.4 32 0 52 52 SSW 12 19 29.65 1004 10 16 0.00 0.00
7:53 am 07:53 Sunny 56 13.3 32 0 40 40 S 10 17 29.61 1003 10 16 0.00 0.00
8:53 am 08:53 Partly Cloudy 60 15.6 34 1.1 38 38 WSW 18 30 29.61 1003 10 16 0.00 0.00
9:53 am 09:53 Mostly Cloudy 59 15 36 2.2 42 42 W 29 46 29.65 1004 10 16 0.00 0.00
10:53 am 10:53 Cloudy 55 12.8 32 0 42 42 WSW 30 48 29.70 1006 10 16 0.00 0.00
11:53 am 11:53 Cloudy with Haze 54 12.2 28 -2.2 37 37 W 43 69 29.75 1007 3 5 0.00 0.00
12:00 pm 12:00 Cloudy with Haze 54 12 25 -4 33 33 W 38 61 29.71 1006 2 3 0.00 0.00
12:07 pm 12:07 Cloudy with Haze 52 11 27 -3 38 38 W 40 65 29.71 1006 3 5 0.00 0.00
12:20 pm 12:20 Cloudy 52 11 27 -3 38 38 W 36 57 29.71 1006 7 11 0.00 0.00
12:53 pm 12:53 Cloudy 52 11.1 31 -0.6 45 45 WSW 26 43 29.79 1009 9 14 0.00 0.00
1:48 pm 13:48 Cloudy 52 11 27 -3 38 38 WSW 36 57 29.77 1008 7 11 0.00 0.00
1:53 pm 13:53 Mostly Cloudy 51 10.6 24 -4.4 35 35 WSW 32 52 29.83 1010 8 13 0.00 0.03
2:19 pm 14:19 Mostly Sunny 55 13 21 -6 26 26 WSW 46 74 29.71 1006 10 16 0.00 0.00
2:53 pm 14:53 Mostly Sunny 55 12.8 22 -5.6 28 28 WSW 44 70 29.79 1009 10 16 0.00 0.00
3:53 pm 15:53 Mostly Cloudy 53 11.7 23 -5 31 31 WSW 36 57 29.85 1011 10 16 0.00 0.00
4:53 pm 16:53 Mostly Cloudy with Haze 53 11.7 23 -5 31 31 W 35 56 29.88 1012 3 5 0.00 0.00
5:53 pm 17:53 Cloudy 48 8.9 25 -3.9 41 41 WNW 28 44 29.95 1014 10 16 0.00 0.00
6:53 pm 18:53 Cloudy with Light Rain 49 9.4 25 -3.9 39 39 W 29 46 30.01 1016 10 16 0.00 0.03
7:53 pm 19:53 Cloudy 49 9.4 26 -3.3 41 41 W 18 30 30.05 1018 10 16 0.00 0.03
8:53 pm 20:53 Cloudy 49 9.4 25 -3.9 39 39 W 17 28 30.08 1019 10 16 0.00 0.00
9:53 pm 21:53 Cloudy 47 8.3 26 -3.3 44 44 WSW 15 24 30.11 1020 10 16 0.00 0.00
10:53 pm 22:53 Cloudy 45 7.2 26 -3.3 48 48 WSW 12 19 30.15 1021 10 16 0.00 0.00
11:53 pm 23:53 Mostly Cloudy 42 5.6 26 -3.3 53 53 SW 13 20 30.17 1022 10 16 0.00 0.00

Powered by AerisWeather